| time (UTC) | temp F | wind direction | speed MPH | gust MPH | rain 1hr in | rain 24hr in | rain mn in | humidity % | barometer mb |
| 20260906213044 | 81 | 88 | 4.0 | 12.0 | 0.00 | 0.00 | 0.00 | 35 | 1009.8 |
| 20260906211539 | 81 | 19 | 3.0 | 10.0 | 0.00 | 0.00 | 0.00 | 40 | 1010.0 |
| 20260906210035 | 81 | 28 | 4.0 | 10.0 | 0.00 | 0.00 | 0.00 | 41 | 1010.0 |
| 20260906204533 | 79 | 25 | 4.0 | 9.0 | 0.00 | 0.00 | 0.00 | 44 | 1010.2 |
| 20260906203028 | 77 | 18 | 3.0 | 8.0 | 0.00 | 0.00 | 0.00 | 47 | 1010.3 |
| 20260906201524 | 77 | 19 | 2.0 | 8.0 | 0.00 | 0.00 | 0.00 | 46 | 1010.4 |
| 20260906200021 | 76 | 38 | 2.0 | 8.0 | 0.00 | 0.00 | 0.00 | 49 | 1010.5 |
| 20260906194518 | 77 | 21 | 4.0 | 9.0 | 0.00 | 0.00 | 0.00 | 49 | 1010.6 |
| 20260906193015 | 76 | 142 | 5.0 | 11.0 | 0.00 | 0.00 | 0.00 | 51 | 1010.6 |
| 20260906191513 | 76 | 96 | 4.0 | 10.0 | 0.00 | 0.00 | 0.00 | 51 | 1010.8 |
| 20260906190011 | 76 | 320 | 3.0 | 9.0 | 0.00 | 0.00 | 0.00 | 49 | 1010.8 |
| 20260906184508 | 74 | 44 | 2.0 | 6.0 | 0.00 | 0.00 | 0.00 | 52 | 1010.9 |
| 20260906183101 | 73 | 87 | 0.0 | 4.0 | 0.00 | 0.00 | 0.00 | 54 | 1011.0 |
| 20260906181556 | 71 | 88 | 1.0 | 8.0 | 0.00 | 0.00 | 0.00 | 57 | 1011.0 |
| 20260906180104 | 71 | 36 | 2.0 | 4.0 | 0.00 | 0.00 | 0.00 | 57 | 1011.1 |
| 20260906174557 | 70 | 342 | 2.0 | 4.0 | 0.00 | 0.00 | 0.00 | 59 | 1011.1 |
| 20260906173043 | 68 | 305 | 0.0 | 6.0 | 0.00 | 0.00 | 0.00 | 62 | 1011.1 |
| 20260906171541 | 68 | 63 | 2.0 | 6.0 | 0.00 | 0.00 | 0.00 | 62 | 1011.2 |
| 20260906170034 | 68 | 348 | 3.0 | 5.0 | 0.00 | 0.00 | 0.00 | 63 | 1011.2 |
| 20260906164530 | 66 | 161 | 3.0 | 6.0 | 0.00 | 0.00 | 0.00 | 65 | 1011.2 |
| 20260906163027 | 64 | 142 | 1.0 | 4.0 | 0.00 | 0.00 | 0.00 | 70 | 1011.3 |
| 20260906161523 | 63 | 94 | 2.0 | 7.0 | 0.00 | 0.00 | 0.00 | 72 | 1011.5 |
| 20260906160017 | 62 | 62 | 1.0 | 2.0 | 0.00 | 0.00 | 0.00 | 76 | 1011.6 |
| 20260906154523 | 60 | 16 | 0.0 | 3.0 | 0.00 | 0.00 | 0.00 | 81 | 1011.8 |
| 20260906153008 | 58 | 37 | 1.0 | 3.0 | 0.00 | 0.00 | 0.00 | 87 | 1012.1 |
| 20260906151504 | 54 | 173 | 0.0 | 0.0 | 0.00 | 0.00 | 0.00 | 90 | 1012.0 |
| 20260906150106 | 52 | 173 | 1.0 | 2.0 | 0.00 | 0.00 | 0.00 | 91 | 1012.0 |
| 20260906144556 | 50 | 173 | 0.0 | 2.0 | 0.00 | 0.00 | 0.00 | 92 | 1012.0 |
| 20260906143102 | 47 | 173 | 1.0 | 3.0 | 0.00 | 0.00 | 0.00 | 91 | 1011.7 |
| 20260906141557 | 46 | 163 | 2.0 | 5.0 | 0.00 | 0.00 | 0.00 | 91 | 1011.5 |
| 20260906140046 | 46 | 198 | 1.0 | 2.0 | 0.00 | 0.00 | 0.00 | 90 | 1011.4 |
| 20260906134540 | 47 | 197 | 0.0 | 3.0 | 0.00 | 0.00 | 0.00 | 91 | 1011.3 |
| 20260906133038 | 47 | 197 | 0.0 | 4.0 | 0.00 | 0.00 | 0.00 | 90 | 1011.1 |
| 20260906131537 | 46 | 167 | 3.0 | 5.0 | 0.00 | 0.00 | 0.00 | 90 | 1011.0 |
| 20260906130046 | 46 | 189 | 2.0 | 3.0 | 0.00 | 0.00 | 0.00 | 90 | 1011.0 |
| 20260906124533 | 46 | 189 | 0.0 | 2.0 | 0.00 | 0.00 | 0.00 | 89 | 1010.9 |
| 20260906123040 | 47 | 192 | 2.0 | 3.0 | 0.00 | 0.00 | 0.00 | 88 | 1011.0 |
| 20260906121530 | 47 | 192 | 0.0 | 2.0 | 0.00 | 0.00 | 0.00 | 90 | 1011.0 |
| 20260906120030 | 47 | 193 | 2.0 | 4.0 | 0.00 | 0.00 | 0.00 | 89 | 1010.9 |
| 20260906114531 | 47 | 188 | 2.0 | 4.0 | 0.00 | 0.00 | 0.00 | 88 | 1010.9 |
| 20260906113026 | 47 | 180 | 1.0 | 3.0 | 0.00 | 0.00 | 0.00 | 88 | 1010.9 |
| 20260906111525 | 47 | 180 | 2.0 | 4.0 | 0.00 | 0.00 | 0.00 | 88 | 1011.0 |
| 20260906110025 | 47 | 180 | 2.0 | 5.0 | 0.00 | 0.00 | 0.00 | 88 | 1010.8 |
| 20260906104537 | 47 | 180 | 3.0 | 5.0 | 0.00 | 0.00 | 0.00 | 87 | 1010.8 |
| 20260906103039 | 47 | 166 | 3.0 | 5.0 | 0.00 | 0.00 | 0.00 | 87 | 1010.7 |
| 20260906101519 | 48 | 170 | 3.0 | 6.0 | 0.00 | 0.00 | 0.00 | 87 | 1010.8 |
| 20260906100025 | 48 | 181 | 3.0 | 4.0 | 0.00 | 0.00 | 0.00 | 88 | 1010.8 |
| 20260906094512 | 48 | 184 | 2.0 | 3.0 | 0.00 | 0.00 | 0.00 | 87 | 1010.8 |
| 20260906093017 | 48 | 186 | 2.0 | 3.0 | 0.00 | 0.00 | 0.00 | 87 | 1010.7 |
| 20260906091519 | 49 | 211 | 2.0 | 3.0 | 0.00 | 0.00 | 0.00 | 87 | 1010.8 |
| 20260906090005 | 49 | 223 | 1.0 | 2.0 | 0.00 | 0.00 | 0.00 | 86 | 1010.8 |
| 20260906084502 | 50 | 242 | 1.0 | 4.0 | 0.00 | 0.00 | 0.00 | 84 | 1010.9 |
| 20260906083100 | 51 | 203 | 2.0 | 4.0 | 0.00 | 0.00 | 0.00 | 84 | 1010.9 |
| 20260906081559 | 51 | 153 | 1.0 | 5.0 | 0.00 | 0.00 | 0.00 | 85 | 1010.9 |
| 20260906080057 | 51 | 180 | 2.0 | 6.0 | 0.00 | 0.00 | 0.00 | 85 | 1010.9 |
| 20260906074550 | 52 | 189 | 3.0 | 5.0 | 0.00 | 0.00 | 0.00 | 84 | 1011.0 |
| 20260906073026 | 52 | 173 | 3.0 | 5.0 | 0.00 | 0.00 | 0.00 | 83 | 1010.9 |
| 20260906071523 | 53 | 173 | 4.0 | 6.0 | 0.00 | 0.00 | 0.00 | 82 | 1010.9 |
| 20260906070023 | 53 | 171 | 3.0 | 6.0 | 0.00 | 0.00 | 0.00 | 83 | 1010.8 |
| 20260906064525 | 53 | 184 | 5.0 | 6.0 | 0.00 | 0.00 | 0.00 | 84 | 1010.9 |
| 20260906063030 | 53 | 167 | 4.0 | 6.0 | 0.00 | 0.00 | 0.00 | 83 | 1011.0 |
| 20260906061525 | 54 | 164 | 4.0 | 5.0 | 0.00 | 0.00 | 0.00 | 83 | 1011.0 |
| 20260906060023 | 54 | 174 | 5.0 | 6.0 | 0.00 | 0.00 | 0.00 | 83 | 1011.1 |
| 20260906054544 | 54 | 169 | 4.0 | 5.0 | 0.00 | 0.00 | 0.00 | 82 | 1011.1 |
| 20260906053023 | 55 | 192 | 4.0 | 5.0 | 0.00 | 0.00 | 0.00 | 80 | 1011.3 |
| 20260906051530 | 55 | 119 | 2.0 | 4.0 | 0.00 | 0.00 | 0.00 | 79 | 1011.4 |
| 20260906050028 | 56 | 236 | 0.0 | 5.0 | 0.00 | 0.00 | 0.00 | 78 | 1011.4 |
| 20260906044522 | 57 | 360 | 1.0 | 2.0 | 0.00 | 0.00 | 0.00 | 75 | 1011.4 |
| 20260906043021 | 58 | 360 | 1.0 | 2.0 | 0.00 | 0.00 | 0.00 | 75 | 1011.3 |
| 20260906041520 | 59 | 5 | 1.0 | 2.0 | 0.00 | 0.00 | 0.00 | 72 | 1011.0 |
| 20260906040020 | 59 | 5 | 0.0 | 2.0 | 0.00 | 0.00 | 0.00 | 69 | 1010.9 |
| 20260906034522 | 61 | 9 | 0.0 | 3.0 | 0.00 | 0.00 | 0.00 | 66 | 1010.6 |
| 20260906033020 | 61 | 126 | 1.0 | 2.0 | 0.00 | 0.00 | 0.00 | 65 | 1010.3 |
| 20260906031552 | 62 | 128 | 1.0 | 3.0 | 0.00 | 0.00 | 0.00 | 65 | 1010.1 |
| 20260906030018 | 63 | 92 | 0.0 | 4.0 | 0.00 | 0.00 | 0.00 | 65 | 1009.9 |
| 20260906024540 | 64 | 76 | 1.0 | 4.0 | 0.00 | 0.00 | 0.00 | 63 | 1009.8 |
| 20260906023020 | 65 | 190 | 0.0 | 5.0 | 0.00 | 0.00 | 0.00 | 61 | 1009.7 |
| 20260906021517 | 66 | 162 | 2.0 | 7.0 | 0.00 | 0.00 | 0.00 | 59 | 1009.6 |
| 20260906020017 | 68 | 144 | 4.0 | 7.0 | 0.00 | 0.00 | 0.00 | 57 | 1009.6 |
| 20260906014519 | 70 | 129 | 1.0 | 7.0 | 0.00 | 0.00 | 0.00 | 52 | 1009.5 |
| 20260906013016 | 72 | 25 | 0.0 | 4.0 | 0.00 | 0.00 | 0.00 | 45 | 1009.4 |
| 20260906011515 | 72 | 30 | 1.0 | 5.0 | 0.00 | 0.00 | 0.00 | 46 | 1009.4 |
| 20260906010037 | 73 | 190 | 2.0 | 6.0 | 0.00 | 0.00 | 0.00 | 42 | 1009.2 |
| 20260906004514 | 74 | 209 | 3.0 | 10.0 | 0.00 | 0.00 | 0.00 | 41 | 1009.2 |
| 20260906003014 | 76 | 194 | 5.0 | 8.0 | 0.00 | 0.00 | 0.00 | 39 | 1009.2 |
| 20260906001514 | 77 | 259 | 3.0 | 9.0 | 0.00 | 0.00 | 0.00 | 36 | 1009.2 |
| 20260906000018 | 77 | 275 | 3.0 | 9.0 | 0.00 | 0.00 | 0.00 | 39 | 1009.0 |
| 20260905234512 | 77 | 231 | 5.0 | 11.0 | 0.00 | 0.00 | 0.00 | 38 | 1009.0 |
| 20260905233011 | 77 | 254 | 10.0 | 15.0 | 0.00 | 0.00 | 0.00 | 38 | 1009.1 |
| 20260905231510 | 77 | 242 | 7.0 | 12.0 | 0.00 | 0.00 | 0.00 | 41 | 1009.1 |
| 20260905230017 | 77 | 223 | 7.0 | 13.0 | 0.00 | 0.00 | 0.00 | 42 | 1009.2 |
| 20260905224516 | 78 | 213 | 8.0 | 11.0 | 0.00 | 0.00 | 0.00 | 42 | 1009.4 |
| 20260905223013 | 80 | 219 | 8.0 | 12.0 | 0.00 | 0.00 | 0.00 | 42 | 1009.3 |
| 20260905221506 | 81 | 200 | 4.0 | 10.0 | 0.00 | 0.00 | 0.00 | 42 | 1009.4 |
| 20260905220003 | 82 | 66 | 3.0 | 10.0 | 0.00 | 0.00 | 0.00 | 37 | 1009.3 |
| 20260905214600 | 82 | 36 | 2.0 | 11.0 | 0.00 | 0.00 | 0.00 | 36 | 1009.5 |